START_TIME,STEP,MOV.,P11,t_acc.,P23,t_acc.,P27,t_acc.,A4,t_acc.
1981-08-27 09:00:23.910 ,4,0,0.,4.8,0.,4.8,0.,4.8,0.,4.8
1981-08-27 09:00:28.710 ,4,0,0.,4.8,0.,4.8,0.,4.8,0.,4.8
1981-08-27 09:00:33.510 ,4,0,1.,4.8,0.,4.8,0.,4.8,0.,4.8
1981-08-27 09:00:38.310 ,4,0,1.,4.8,0.,4.8,0.,4.8,0.,4.8
1981-08-27 09:00:43.110 ,4,0,0.,4.8,0.,4.8,0.,4.8,0.,4.8
1981-08-27 09:00:47.910 ,3,0,0.,4.8,0.,4.8,0.,4.8,0.,4.8
1981-08-27 09:00:52.710 ,3,0,1.,4.8,0.,4.8,0.,4.8,0.,4.8
1981-08-27 09:00:57.510 ,3,0,2.,4.8,0.,4.8,0.,4.8,0.,4.8
1981-08-27 09:01:02.310 ,3,0,0.,4.8,0.,4.8,0.,4.8,0.,4.8
1981-08-27 09:01:07.110 ,3,0,0.,4.8,0.,4.8,0.,4.8,0.,4.8
1981-08-27 09:01:11.910 ,2,0,0.,4.8,0.,4.8,0.,4.8,0.,4.8
1981-08-27 09:01:16.710 ,2,0,0.,4.8,0.,4.8,0.,4.8,0.,4.8
1981-08-27 09:01:21.510 ,2,0,0.,4.8,0.,4.8,0.,4.8,0.,4.8
1981-08-27 09:01:26.310 ,2,0,1.,4.8,0.,4.8,0.,4.8,0.,4.8
1981-08-27 09:01:31.110 ,2,0,0.,4.8,0.,4.8,0.,4.8,0.,4.8
1981-08-27 09:01:35.910 ,1,0,2.,4.8,0.,4.8,1.,4.8,0.,4.8
1981-08-27 09:01:40.710 ,1,0,1.,4.8,0.,4.8,0.,4.8,0.,4.8
1981-08-27 09:01:45.510 ,1,0,2.,4.8,0.,4.8,0.,4.8,0.,4.8
1981-08-27 09:01:50.310 ,1,0,0.,4.8,0.,4.8,0.,4.8,0.,4.8
1981-08-27 09:01:55.110 ,1,0,0.,4.8,0.,4.8,0.,4.8,0.,4.8
1981-08-27 09:01:59.910 ,0,0,1.,4.8,0.,4.8,0.,4.8,0.,4.8
1981-08-27 09:02:04.710 ,0,0,0.,4.8,0.,4.8,0.,4.8,0.,4.8
1981-08-27 09:02:09.510 ,0,0,0.,4.8,0.,4.8,0.,4.8,0.,4.8
1981-08-27 09:02:14.310 ,0,0,1.,4.8,0.,4.8,0.,4.8,0.,4.8
1981-08-27 09:02:19.110 ,0,0,0.,4.8,0.,4.8,0.,4.8,0.,4.8
1981-08-27 09:02:23.910 ,0,0,0.,4.8,0.,4.8,0.,4.8,0.,4.8
1981-08-27 09:02:28.710 ,0,0,0.,4.8,0.,4.8,0.,4.8,0.,4.8
1981-08-27 09:02:33.510 ,0,0,0.,4.8,0.,4.8,0.,4.8,0.,4.8
1981-08-27 09:02:38.310 ,0,0,1.,4.8,0.,4.8,0.,4.8,0.,4.8
1981-08-27 09:02:43.110 ,0,0,1.,4.8,0.,4.8,0.,4.8,0.,4.8
1981-08-27 09:02:47.910 ,1,0,0.,4.8,0.,4.8,0.,4.8,0.,4.8
1981-08-27 09:02:52.710 ,1,0,1.,4.8,0.,4.8,0.,4.8,0.,4.8
1981-08-27 09:02:57.510 ,1,0,0.,4.8,1.,4.8,0.,4.8,0.,4.8
1981-08-27 09:03:02.310 ,1,0,1.,4.8,0.,4.8,0.,4.8,0.,4.8
1981-08-27 09:03:07.110 ,1,0,1.,4.8,0.,4.8,0.,4.8,0.,4.8
1981-08-27 09:03:11.900 ,2,0,0.,4.8,0.,4.8,0.,4.8,0.,4.8
1981-08-27 09:03:16.710 ,2,0,0.,4.8,0.,4.8,0.,4.8,0.,4.8
1981-08-27 09:03:21.510 ,2,0,0.,4.8,0.,4.8,0.,4.8,0.,4.8
1981-08-27 09:03:26.310 ,2,0,0.,4.8,1.,4.8,0.,4.8,0.,4.8
1981-08-27 09:03:31.110 ,2,0,0.,4.8,0.,4.8,0.,4.8,0.,4.8
1981-08-27 09:03:35.900 ,3,0,0.,4.8,0.,4.8,0.,4.8,0.,4.8
1981-08-27 09:03:40.710 ,3,0,1.,4.8,0.,4.8,0.,4.8,0.,4.8
1981-08-27 09:03:45.510 ,3,0,1.,4.8,0.,4.8,0.,4.8,0.,4.8
1981-08-27 09:03:50.310 ,3,0,0.,4.8,0.,4.8,0.,4.8,0.,4.8
1981-08-27 09:03:55.100 ,3,0,0.,4.8,0.,4.8,0.,4.8,0.,4.8
1981-08-27 09:03:59.900 ,4,0,0.,4.8,0.,4.8,0.,4.8,0.,4.8
1981-08-27 09:04:04.710 ,4,0,0.,4.8,0.,4.8,0.,4.8,0.,4.8
1981-08-27 09:04:09.510 ,4,0,0.,4.8,0.,4.8,0.,4.8,0.,4.8
1981-08-27 09:04:14.310 ,4,0,0.,4.8,0.,4.8,1.,4.8,0.,4.8
1981-08-27 09:04:19.110 ,4,0,0.,4.8,0.,4.8,0.,4.8,0.,4.8
1981-08-27 09:04:23.900 ,5,0,0.,4.8,0.,4.8,0.,4.8,0.,4.8
1981-08-27 09:04:28.700 ,5,0,0.,4.8,0.,4.8,0.,4.8,0.,4.8
1981-08-27 09:04:33.510 ,5,0,0.,4.8,0.,4.8,0.,4.8,0.,4.8
1981-08-27 09:04:38.300 ,5,0,0.,4.8,0.,4.8,0.,4.8,0.,4.8
1981-08-27 09:04:43.110 ,5,0,0.,4.8,0.,4.8,0.,4.8,0.,4.8
1981-08-27 09:04:47.900 ,6,0,1.,4.8,0.,4.8,0.,4.8,0.,4.8
1981-08-27 09:04:52.700 ,6,0,0.,4.8,0.,4.8,0.,4.8,0.,4.8
1981-08-27 09:04:57.510 ,6,0,0.,4.8,0.,4.8,1.,4.8,0.,4.8
1981-08-27 09:05:02.300 ,6,0,0.,4.8,0.,4.8,0.,4.8,0.,4.8
1981-08-27 09:05:07.110 ,6,0,0.,4.8,0.,4.8,0.,4.8,0.,4.8
1981-08-27 09:05:11.900 ,7,0,0.,4.8,0.,4.8,0.,4.8,0.,4.8
1981-08-27 09:05:16.700 ,7,0,0.,4.8,0.,4.8,0.,4.8,0.,4.8
1981-08-27 09:05:21.510 ,7,0,0.,4.8,0.,4.8,0.,4.8,0.,4.8
1981-08-27 09:05:26.300 ,7,0,0.,4.8,0.,4.8,0.,4.8,0.,4.8
1981-08-27 09:05:31.110 ,7,0,0.,4.8,0.,4.8,0.,4.8,0.,4.8
1981-08-27 09:05:35.900 ,7,0,1.,4.8,0.,4.8,0.,4.8,0.,4.8
1981-08-27 09:05:40.700 ,7,0,0.,4.8,0.,4.8,0.,4.8,0.,4.8
1981-08-27 09:05:45.510 ,7,0,1.,4.8,0.,4.8,1.,4.8,0.,4.8
1981-08-27 09:05:50.300 ,7,0,0.,4.8,0.,4.8,0.,4.8,0.,4.8
1981-08-27 09:05:55.110 ,7,0,0.,4.8,0.,4.8,0.,4.8,0.,4.8
1981-08-27 09:05:59.900 ,7,0,0.,4.8,0.,4.8,0.,4.8,0.,4.8
1981-08-27 09:06:04.700 ,7,0,0.,4.8,0.,4.8,0.,4.8,0.,4.8
1981-08-27 09:06:09.510 ,7,0,0.,4.8,0.,4.8,0.,4.8,0.,4.8
1981-08-27 09:06:14.300 ,7,0,0.,4.8,0.,4.8,0.,4.8,0.,4.8
1981-08-27 09:06:19.110 ,7,0,0.,4.8,0.,4.8,0.,4.8,0.,4.8
1981-08-27 09:06:23.900 ,6,0,0.,4.8,0.,4.8,0.,4.8,0.,4.8
1981-08-27 09:06:28.700 ,6,0,1.,4.8,0.,4.8,0.,4.8,0.,4.8
1981-08-27 09:06:33.510 ,6,0,1.,4.8,0.,4.8,0.,4.8,0.,4.8
1981-08-27 09:06:38.300 ,6,0,0.,4.8,0.,4.8,0.,4.8,0.,4.8
1981-08-27 09:06:43.110 ,6,0,0.,4.8,0.,4.8,0.,4.8,0.,4.8
1981-08-27 09:06:47.900 ,6,0,0.,4.8,0.,4.8,0.,4.8,0.,4.8
1981-08-27 09:06:52.700 ,6,0,0.,4.8,0.,4.8,0.,4.8,0.,4.8
1981-08-27 09:06:57.510 ,6,0,0.,4.8,0.,4.8,0.,4.8,0.,4.8
1981-08-27 09:07:02.300 ,6,0,0.,4.8,0.,4.8,0.,4.8,0.,4.8
1981-08-27 09:07:07.110 ,6,0,0.,4.8,0.,4.8,0.,4.8,0.,4.8
1981-08-27 09:07:11.900 ,5,0,0.,4.8,0.,4.8,0.,4.8,0.,4.8
1981-08-27 09:07:16.700 ,5,0,0.,4.8,0.,4.8,0.,4.8,0.,4.8
1981-08-27 09:07:21.510 ,5,0,0.,4.8,0.,4.8,0.,4.8,0.,4.8
1981-08-27 09:07:26.300 ,5,0,0.,4.8,0.,4.8,0.,4.8,0.,4.8
1981-08-27 09:07:31.110 ,5,0,1.,4.8,0.,4.8,0.,4.8,0.,4.8
1981-08-27 09:07:35.900 ,5,0,0.,4.8,0.,4.8,0.,4.8,0.,4.8
1981-08-27 09:07:40.700 ,5,0,0.,4.8,0.,4.8,0.,4.8,0.,4.8
1981-08-27 09:07:45.510 ,5,0,0.,4.8,0.,4.8,0.,4.8,0.,4.8
1981-08-27 09:07:50.300 ,5,0,0.,4.8,0.,4.8,0.,4.8,0.,4.8
1981-08-27 09:07:55.110 ,5,0,1.,4.8,1.,4.8,1.,4.8,0.,4.8
1981-08-27 09:07:59.900 ,4,0,0.,4.8,0.,4.8,0.,4.8,0.,4.8
1981-08-27 09:08:04.700 ,4,0,0.,4.8,0.,4.8,0.,4.8,0.,4.8
1981-08-27 09:08:09.510 ,4,0,1.,4.8,0.,4.8,0.,4.8,0.,4.8
1981-08-27 09:08:14.300 ,4,0,0.,4.8,0.,4.8,1.,4.8,0.,4.8
1981-08-27 09:08:19.110 ,4,0,1.,4.8,0.,4.8,0.,4.8,0.,4.8
1981-08-27 09:08:23.900 ,4,0,0.,4.8,0.,4.8,0.,4.8,0.,4.8
1981-08-27 09:08:28.700 ,4,0,2.,4.8,0.,4.8,0.,4.8,0.,4.8
1981-08-27 09:08:33.510 ,4,0,0.,4.8,0.,4.8,0.,4.8,0.,4.8
1981-08-27 09:08:38.300 ,4,0,1.,4.8,0.,4.8,0.,4.8,0.,4.8
1981-08-27 09:08:43.100 ,4,0,0.,4.8,0.,4.8,0.,4.8,0.,4.8
1981-08-27 09:08:47.900 ,3,0,2.,4.8,0.,4.8,0.,4.8,0.,4.8
1981-08-27 09:08:52.710 ,3,0,0.,4.8,0.,4.8,0.,4.8,0.,4.8
1981-08-27 09:08:57.510 ,3,0,0.,4.8,0.,4.8,0.,4.8,0.,4.8
1981-08-27 09:09:02.300 ,3,0,1.,4.8,0.,4.8,0.,4.8,0.,4.8
1981-08-27 09:09:07.100 ,3,0,0.,4.8,0.,4.8,0.,4.8,0.,4.8
1981-08-27 09:09:11.900 ,3,0,0.,4.8,0.,4.8,0.,4.8,0.,4.8
1981-08-27 09:09:16.710 ,3,0,0.,4.8,0.,4.8,0.,4.8,0.,4.8
1981-08-27 09:09:21.510 ,3,0,2.,4.8,0.,4.8,0.,4.8,0.,4.8
1981-08-27 09:09:26.300 ,3,0,0.,4.8,0.,4.8,1.,4.8,0.,4.8
1981-08-27 09:09:31.100 ,3,0,0.,4.8,0.,4.8,1.,4.8,0.,4.8
1981-08-27 09:09:35.900 ,2,0,0.,4.8,0.,4.8,0.,4.8,0.,4.8
1981-08-27 09:09:40.710 ,2,0,0.,4.8,0.,4.8,0.,4.8,0.,4.8
1981-08-27 09:09:45.510 ,2,0,1.,4.8,0.,4.8,0.,4.8,0.,4.8
1981-08-27 09:09:50.300 ,2,0,0.,4.8,0.,4.8,0.,4.8,0.,4.8
1981-08-27 09:09:55.100 ,2,0,0.,4.8,0.,4.8,0.,4.8,0.,4.8
1981-08-27 09:09:59.900 ,2,0,0.,4.8,1.,4.8,0.,4.8,0.,4.8
1981-08-27 09:10:04.710 ,2,0,0.,4.8,0.,4.8,0.,4.8,0.,4.8
1981-08-27 09:10:09.510 ,2,0,0.,4.8,0.,4.8,0.,4.8,0.,4.8
1981-08-27 09:10:14.300 ,2,0,0.,4.8,0.,4.8,0.,4.8,0.,4.8
1981-08-27 09:10:19.100 ,2,0,0.,4.8,0.,4.8,0.,4.8,0.,4.8
1981-08-27 09:10:23.900 ,1,0,1.,4.8,0.,4.8,0.,4.8,0.,4.8
1981-08-27 09:10:28.710 ,1,0,1.,4.8,0.,4.8,0.,4.8,0.,4.8
1981-08-27 09:10:33.510 ,1,0,0.,4.8,0.,4.8,0.,4.8,0.,4.8
1981-08-27 09:10:38.300 ,1,0,0.,4.8,0.,4.8,0.,4.8,0.,4.8
1981-08-27 09:10:43.100 ,1,0,0.,4.8,0.,4.8,0.,4.8,0.,4.8
1981-08-27 09:10:47.900 ,1,0,1.,4.8,0.,4.8,0.,4.8,0.,4.8
1981-08-27 09:10:52.710 ,1,0,0.,4.8,0.,4.8,0.,4.8,0.,4.8
1981-08-27 09:10:57.510 ,1,0,0.,4.8,0.,4.8,0.,4.8,0.,4.8
1981-08-27 09:11:02.300 ,1,0,4.,4.8,0.,4.8,0.,4.8,0.,4.8
1981-08-27 09:11:07.100 ,1,0,0.,4.8,0.,4.8,0.,4.8,0.,4.8
1981-08-27 09:11:11.900 ,0,0,0.,4.8,0.,4.8,0.,4.8,0.,4.8
1981-08-27 09:11:16.710 ,0,0,0.,4.8,0.,4.8,0.,4.8,0.,4.8
1981-08-27 09:11:21.510 ,0,0,1.,4.8,0.,4.8,0.,4.8,0.,4.8
1981-08-27 09:11:26.300 ,0,0,0.,4.8,0.,4.8,0.,4.8,0.,4.8
1981-08-27 09:11:31.100 ,0,0,0.,4.8,0.,4.8,0.,4.8,0.,4.8
1981-08-27 09:11:35.900 ,0,0,0.,4.8,0.,4.8,0.,4.8,0.,4.8
1981-08-27 09:11:40.710 ,0,0,0.,4.8,0.,4.8,0.,4.8,0.,4.8
1981-08-27 09:11:45.510 ,0,0,0.,4.8,0.,4.8,0.,4.8,0.,4.8
1981-08-27 09:11:50.300 ,0,0,0.,4.8,0.,4.8,0.,4.8,0.,4.8
1981-08-27 09:11:55.100 ,0,0,0.,4.8,0.,4.8,0.,4.8,0.,4.8
1981-08-27 09:11:59.900 ,0,0,0.,4.8,0.,4.8,0.,4.8,0.,4.8
1981-08-27 09:12:04.710 ,0,0,0.,4.8,0.,4.8,0.,4.8,0.,4.8
1981-08-27 09:12:09.510 ,0,0,0.,4.8,0.,4.8,0.,4.8,0.,4.8
1981-08-27 09:12:14.300 ,0,0,1.,4.8,0.,4.8,0.,4.8,0.,4.8
1981-08-27 09:12:19.100 ,0,0,0.,4.8,0.,4.8,0.,4.8,0.,4.8
1981-08-27 09:12:23.900 ,0,0,0.,4.8,0.,4.8,0.,4.8,0.,4.8
1981-08-27 09:12:28.710 ,0,0,0.,4.8,0.,4.8,0.,4.8,0.,4.8
1981-08-27 09:12:33.510 ,0,0,1.,4.8,0.,4.8,0.,4.8,0.,4.8
1981-08-27 09:12:38.300 ,0,0,0.,4.8,0.,4.8,0.,4.8,0.,4.8
1981-08-27 09:12:43.100 ,0,0,0.,4.8,0.,4.8,0.,4.8,0.,4.8
1981-08-27 09:12:47.900 ,1,0,0.,4.8,0.,4.8,0.,4.8,0.,4.8
1981-08-27 09:12:52.710 ,1,0,1.,4.8,0.,4.8,0.,4.8,0.,4.8
1981-08-27 09:12:57.510 ,1,0,2.,4.8,0.,4.8,0.,4.8,0.,4.8
1981-08-27 09:13:02.300 ,1,0,0.,4.8,0.,4.8,0.,4.8,0.,4.8
1981-08-27 09:13:07.100 ,1,0,0.,4.8,0.,4.8,0.,4.8,0.,4.8
1981-08-27 09:13:11.900 ,1,0,2.,4.8,0.,4.8,0.,4.8,0.,4.8
1981-08-27 09:13:16.710 ,1,0,1.,4.8,0.,4.8,0.,4.8,0.,4.8
1981-08-27 09:13:21.510 ,1,0,0.,4.8,0.,4.8,0.,4.8,0.,4.8
1981-08-27 09:13:26.300 ,1,0,0.,4.8,0.,4.8,0.,4.8,0.,4.8
1981-08-27 09:13:31.100 ,1,0,1.,4.8,0.,4.8,0.,4.8,0.,4.8
1981-08-27 09:13:35.900 ,2,0,0.,4.8,0.,4.8,0.,4.8,0.,4.8
1981-08-27 09:13:40.710 ,2,0,0.,4.8,0.,4.8,0.,4.8,0.,4.8
1981-08-27 09:13:45.510 ,2,0,0.,4.8,0.,4.8,0.,4.8,0.,4.8
1981-08-27 09:13:50.300 ,2,0,0.,4.8,0.,4.8,0.,4.8,0.,4.8
1981-08-27 09:13:55.100 ,2,0,0.,4.8,0.,4.8,0.,4.8,0.,4.8
1981-08-27 09:13:59.900 ,2,0,1.,4.8,0.,4.8,1.,4.8,0.,4.8
1981-08-27 09:14:04.710 ,2,0,1.,4.8,0.,4.8,0.,4.8,0.,4.8
1981-08-27 09:14:09.510 ,2,0,1.,4.8,0.,4.8,0.,4.8,0.,4.8
1981-08-27 09:14:14.300 ,2,0,0.,4.8,0.,4.8,0.,4.8,0.,4.8
1981-08-27 09:14:19.100 ,2,0,0.,4.8,0.,4.8,0.,4.8,0.,4.8
1981-08-27 09:14:23.900 ,3,0,0.,4.8,0.,4.8,0.,4.8,0.,4.8
1981-08-27 09:14:28.710 ,3,0,2.,4.8,0.,4.8,0.,4.8,0.,4.8
1981-08-27 09:14:33.510 ,3,0,0.,4.8,0.,4.8,0.,4.8,0.,4.8
1981-08-27 09:14:38.300 ,3,0,0.,4.8,0.,4.8,0.,4.8,0.,4.8
1981-08-27 09:14:43.100 ,3,0,1.,4.8,0.,4.8,0.,4.8,0.,4.8
1981-08-27 09:14:47.900 ,3,0,0.,4.8,0.,4.8,0.,4.8,0.,4.8
1981-08-27 09:14:52.710 ,3,0,0.,4.8,0.,4.8,0.,4.8,0.,4.8
1981-08-27 09:14:57.510 ,3,0,1.,4.8,0.,4.8,0.,4.8,0.,4.8
1981-08-27 09:15:02.300 ,3,0,2.,4.8,0.,4.8,0.,4.8,0.,4.8
1981-08-27 09:15:07.100 ,3,0,1.,4.8,0.,4.8,0.,4.8,0.,4.8
1981-08-27 09:15:11.900 ,4,0,0.,4.8,0.,4.8,0.,4.8,0.,4.8
1981-08-27 09:15:16.710 ,4,0,0.,4.8,1.,4.8,0.,4.8,0.,4.8
1981-08-27 09:15:21.510 ,4,0,1.,4.8,0.,4.8,0.,4.8,0.,4.8
1981-08-27 09:15:26.300 ,4,0,1.,4.8,0.,4.8,0.,4.8,0.,4.8
1981-08-27 09:15:31.100 ,4,0,0.,4.8,0.,4.8,1.,4.8,0.,4.8
1981-08-27 09:15:35.900 ,4,0,0.,4.8,0.,4.8,0.,4.8,0.,4.8
1981-08-27 09:15:40.710 ,4,0,0.,4.8,0.,4.8,0.,4.8,0.,4.8
1981-08-27 09:15:45.510 ,4,0,1.,4.8,0.,4.8,1.,4.8,0.,4.8
1981-08-27 09:15:50.300 ,4,0,0.,4.8,0.,4.8,0.,4.8,0.,4.8
1981-08-27 09:15:55.100 ,4,0,1.,4.8,0.,4.8,0.,4.8,0.,4.8
1981-08-27 09:15:59.900 ,5,0,0.,4.8,0.,4.8,0.,4.8,0.,4.8
1981-08-27 09:16:04.710 ,5,0,0.,4.8,0.,4.8,0.,4.8,0.,4.8
1981-08-27 09:16:09.510 ,5,0,0.,4.8,0.,4.8,0.,4.8,0.,4.8
1981-08-27 09:16:14.300 ,5,0,0.,4.8,0.,4.8,0.,4.8,0.,4.8
1981-08-27 09:16:19.100 ,5,0,0.,4.8,0.,4.8,0.,4.8,0.,4.8
1981-08-27 09:16:23.900 ,5,0,0.,4.8,0.,4.8,0.,4.8,0.,4.8
1981-08-27 09:16:28.710 ,5,0,1.,4.8,0.,4.8,0.,4.8,0.,4.8
1981-08-27 09:16:33.510 ,5,0,0.,4.8,0.,4.8,0.,4.8,0.,4.8
1981-08-27 09:16:38.300 ,5,0,0.,4.8,0.,4.8,1.,4.8,0.,4.8
1981-08-27 09:16:43.100 ,5,0,0.,4.8,0.,4.8,0.,4.8,0.,4.8
1981-08-27 09:16:47.900 ,6,0,2.,4.8,0.,4.8,0.,4.8,0.,4.8
1981-08-27 09:16:52.710 ,6,0,0.,4.8,0.,4.8,0.,4.8,0.,4.8
1981-08-27 09:16:57.510 ,6,0,0.,4.8,0.,4.8,0.,4.8,0.,4.8
1981-08-27 09:17:02.300 ,6,0,0.,4.8,0.,4.8,0.,4.8,0.,4.8
1981-08-27 09:17:07.100 ,6,0,0.,4.8,0.,4.8,0.,4.8,0.,4.8
1981-08-27 09:17:11.910 ,6,0,0.,4.8,0.,4.8,1.,4.8,0.,4.8
1981-08-27 09:17:16.710 ,6,0,0.,4.8,0.,4.8,0.,4.8,0.,4.8
1981-08-27 09:17:21.510 ,6,0,0.,4.8,0.,4.8,0.,4.8,0.,4.8
1981-08-27 09:17:26.310 ,6,0,0.,4.8,0.,4.8,1.,4.8,0.,4.8
1981-08-27 09:17:31.110 ,6,0,0.,4.8,0.,4.8,0.,4.8,0.,4.8
1981-08-27 09:17:35.910 ,7,0,1.,4.8,0.,4.8,0.,4.8,0.,4.8
1981-08-27 09:17:40.710 ,7,0,0.,4.8,0.,4.8,0.,4.8,0.,4.8
1981-08-27 09:17:45.510 ,7,0,1.,4.8,0.,4.8,0.,4.8,0.,4.8
1981-08-27 09:17:50.310 ,7,0,0.,4.8,0.,4.8,0.,4.8,0.,4.8
1981-08-27 09:17:55.110 ,7,0,0.,4.8,0.,4.8,0.,4.8,0.,4.8
1981-08-27 09:17:59.910 ,7,0,0.,4.8,0.,4.8,0.,4.8,0.,4.8
1981-08-27 09:18:04.710 ,7,0,1.,4.8,0.,4.8,0.,4.8,0.,4.8
1981-08-27 09:18:09.510 ,7,0,0.,4.8,0.,4.8,0.,4.8,0.,4.8
1981-08-27 09:18:14.310 ,7,0,0.,4.8,0.,4.8,0.,4.8,0.,4.8
1981-08-27 09:18:19.110 ,7,0,1.,4.8,0.,4.8,0.,4.8,0.,4.8
1981-08-27 09:18:23.910 ,7,0,0.,4.8,0.,4.8,0.,4.8,0.,4.8
1981-08-27 09:18:28.710 ,7,0,0.,4.8,0.,4.8,0.,4.8,0.,4.8
1981-08-27 09:18:33.510 ,7,0,0.,4.8,0.,4.8,0.,4.8,0.,4.8
1981-08-27 09:18:38.310 ,7,0,0.,4.8,0.,4.8,0.,4.8,0.,4.8
1981-08-27 09:18:43.110 ,7,0,1.,4.8,0.,4.8,0.,4.8,0.,4.8
1981-08-27 09:18:47.910 ,6,0,0.,4.8,0.,4.8,1.,4.8,0.,4.8
1981-08-27 09:18:52.710 ,6,0,1.,4.8,0.,4.8,0.,4.8,0.,4.8
1981-08-27 09:18:57.510 ,6,0,1.,4.8,0.,4.8,0.,4.8,0.,4.8
1981-08-27 09:19:02.310 ,6,0,0.,4.8,0.,4.8,0.,4.8,0.,4.8
1981-08-27 09:19:07.110 ,6,0,0.,4.8,0.,4.8,0.,4.8,0.,4.8
1981-08-27 09:19:11.910 ,5,0,1.,4.8,0.,4.8,0.,4.8,0.,4.8
1981-08-27 09:19:16.710 ,5,0,0.,4.8,0.,4.8,0.,4.8,0.,4.8
1981-08-27 09:19:21.510 ,5,0,1.,4.8,0.,4.8,0.,4.8,0.,4.8
1981-08-27 09:19:26.310 ,5,0,0.,4.8,0.,4.8,0.,4.8,0.,4.8
1981-08-27 09:19:31.110 ,5,0,1.,4.8,1.,4.8,0.,4.8,0.,4.8
1981-08-27 09:19:35.910 ,4,0,0.,4.8,0.,4.8,0.,4.8,0.,4.8
1981-08-27 09:19:40.710 ,4,0,0.,4.8,0.,4.8,0.,4.8,0.,4.8
1981-08-27 09:19:45.510 ,4,0,0.,4.8,0.,4.8,0.,4.8,0.,4.8
1981-08-27 09:19:50.310 ,4,0,2.,4.8,0.,4.8,0.,4.8,0.,4.8
1981-08-27 09:19:55.110 ,4,0,0.,4.8,0.,4.8,0.,4.8,0.,4.8
1981-08-27 09:19:59.900 ,3,0,1.,4.8,0.,4.8,0.,4.8,0.,4.8
1981-08-27 09:20:04.700 ,3,0,0.,4.8,0.,4.8,0.,4.8,0.,4.8
1981-08-27 09:20:09.500 ,3,0,0.,4.8,0.,4.8,0.,4.8,0.,4.8
1981-08-27 09:20:14.300 ,3,0,0.,4.8,0.,4.8,0.,4.8,0.,4.8
1981-08-27 09:20:19.100 ,3,0,0.,4.8,0.,4.8,0.,4.8,0.,4.8
1981-08-27 09:20:23.900 ,2,0,1.,4.8,1.,4.8,0.,4.8,0.,4.8
1981-08-27 09:20:28.700 ,2,0,0.,4.8,0.,4.8,0.,4.8,0.,4.8
1981-08-27 09:20:33.500 ,2,0,1.,4.8,0.,4.8,0.,4.8,0.,4.8
1981-08-27 09:20:38.300 ,2,0,0.,4.8,0.,4.8,0.,4.8,0.,4.8
1981-08-27 09:20:43.100 ,2,0,1.,4.8,0.,4.8,0.,4.8,0.,4.8
1981-08-27 09:20:47.900 ,1,0,0.,4.8,0.,4.8,0.,4.8,0.,4.8
1981-08-27 09:20:52.700 ,1,0,0.,4.8,0.,4.8,0.,4.8,0.,4.8
1981-08-27 09:20:57.500 ,1,0,0.,4.8,0.,4.8,0.,4.8,0.,4.8
1981-08-27 09:21:02.300 ,1,0,1.,4.8,0.,4.8,0.,4.8,0.,4.8
1981-08-27 09:21:07.100 ,1,0,0.,4.8,0.,4.8,0.,4.8,0.,4.8
1981-08-27 09:21:11.900 ,0,0,0.,4.8,0.,4.8,0.,4.8,0.,4.8
1981-08-27 09:21:16.700 ,0,0,0.,4.8,0.,4.8,0.,4.8,0.,4.8
1981-08-27 09:21:21.500 ,0,0,2.,4.8,0.,4.8,1.,4.8,0.,4.8
1981-08-27 09:21:26.300 ,0,0,1.,4.8,0.,4.8,0.,4.8,0.,4.8
1981-08-27 09:21:31.100 ,0,0,0.,4.8,0.,4.8,0.,4.8,0.,4.8
1981-08-27 09:21:35.900 ,0,0,0.,4.8,0.,4.8,1.,4.8,0.,4.8
1981-08-27 09:21:40.700 ,0,0,0.,4.8,0.,4.8,0.,4.8,0.,4.8
1981-08-27 09:21:45.500 ,0,0,1.,4.8,0.,4.8,0.,4.8,0.,4.8
1981-08-27 09:21:50.300 ,0,0,0.,4.8,0.,4.8,0.,4.8,0.,4.8
1981-08-27 09:21:55.100 ,0,0,0.,4.8,0.,4.8,0.,4.8,0.,4.8
1981-08-27 09:21:59.900 ,1,0,1.,4.8,0.,4.8,0.,4.8,0.,4.8
1981-08-27 09:22:04.700 ,1,0,0.,4.8,0.,4.8,0.,4.8,0.,4.8
1981-08-27 09:22:09.500 ,1,0,0.,4.8,0.,4.8,0.,4.8,0.,4.8
1981-08-27 09:22:14.300 ,1,0,0.,4.8,0.,4.8,0.,4.8,0.,4.8
1981-08-27 09:22:19.100 ,1,0,0.,4.8,0.,4.8,0.,4.8,0.,4.8
1981-08-27 09:22:23.900 ,2,0,1.,4.8,0.,4.8,0.,4.8,0.,4.8
1981-08-27 09:22:28.700 ,2,0,1.,4.8,0.,4.8,0.,4.8,0.,4.8
1981-08-27 09:22:33.500 ,2,0,1.,4.8,0.,4.8,0.,4.8,0.,4.8
1981-08-27 09:22:38.300 ,2,0,1.,4.8,0.,4.8,0.,4.8,0.,4.8
1981-08-27 09:22:43.100 ,2,0,0.,4.8,0.,4.8,0.,4.8,0.,4.8
1981-08-27 09:22:47.900 ,3,0,0.,4.8,0.,4.8,0.,4.8,0.,4.8
1981-08-27 09:22:52.700 ,3,0,0.,4.8,0.,4.8,0.,4.8,0.,4.8
1981-08-27 09:22:57.500 ,3,0,1.,4.8,0.,4.8,0.,4.8,0.,4.8
1981-08-27 09:23:02.300 ,3,0,0.,4.8,0.,4.8,0.,4.8,0.,4.8
1981-08-27 09:23:07.100 ,3,0,0.,4.8,0.,4.8,0.,4.8,0.,4.8
1981-08-27 09:23:11.900 ,4,0,1.,4.8,0.,4.8,0.,4.8,0.,4.8
1981-08-27 09:23:16.700 ,4,0,0.,4.8,0.,4.8,0.,4.8,0.,4.8
1981-08-27 09:23:21.500 ,4,0,1.,4.8,0.,4.8,0.,4.8,0.,4.8
1981-08-27 09:23:26.300 ,4,0,0.,4.8,0.,4.8,0.,4.8,0.,4.8
1981-08-27 09:23:31.100 ,4,0,1.,4.8,0.,4.8,0.,4.8,0.,4.8
1981-08-27 09:23:35.900 ,5,0,0.,4.8,0.,4.8,0.,4.8,0.,4.8
1981-08-27 09:23:40.700 ,5,0,0.,4.8,0.,4.8,0.,4.8,0.,4.8
1981-08-27 09:23:45.500 ,5,0,0.,4.8,0.,4.8,0.,4.8,0.,4.8
1981-08-27 09:23:50.300 ,5,0,0.,4.8,0.,4.8,0.,4.8,0.,4.8
1981-08-27 09:23:55.100 ,5,0,0.,4.8,0.,4.8,0.,4.8,0.,4.8
1981-08-27 09:23:59.900 ,6,0,2.,4.8,0.,4.8,0.,4.8,0.,4.8
1981-08-27 09:24:04.700 ,6,0,0.,4.8,0.,4.8,0.,4.8,0.,4.8
1981-08-27 09:24:09.500 ,6,0,1.,4.8,0.,4.8,0.,4.8,0.,4.8
1981-08-27 09:24:14.300 ,6,0,1.,4.8,0.,4.8,0.,4.8,0.,4.8
1981-08-27 09:24:19.100 ,6,0,0.,4.8,0.,4.8,0.,4.8,0.,4.8
1981-08-27 09:24:23.900 ,7,0,0.,4.8,0.,4.8,0.,4.8,0.,4.8
1981-08-27 09:24:28.700 ,7,0,1.,4.8,0.,4.8,0.,4.8,0.,4.8
1981-08-27 09:24:33.500 ,7,0,0.,4.8,0.,4.8,0.,4.8,0.,4.8
1981-08-27 09:24:38.300 ,7,0,1.,4.8,0.,4.8,0.,4.8,0.,4.8
1981-08-27 09:24:43.100 ,7,0,0.,4.8,0.,4.8,0.,4.8,0.,4.8
1981-08-27 09:24:47.900 ,7,0,0.,4.8,0.,4.8,0.,4.8,0.,4.8
1981-08-27 09:24:52.700 ,7,0,0.,4.8,0.,4.8,0.,4.8,0.,4.8
1981-08-27 09:24:57.500 ,7,0,0.,4.8,0.,4.8,1.,4.8,0.,4.8
1981-08-27 09:25:02.300 ,7,0,1.,4.8,0.,4.8,0.,4.8,0.,4.8
1981-08-27 09:25:07.100 ,7,0,0.,4.8,0.,4.8,0.,4.8,0.,4.8
1981-08-27 09:25:11.900 ,7,0,0.,4.8,0.,4.8,0.,4.8,0.,4.8
1981-08-27 09:25:16.700 ,7,0,0.,4.8,0.,4.8,0.,4.8,0.,4.8
1981-08-27 09:25:21.500 ,7,0,0.,4.8,0.,4.8,0.,4.8,0.,4.8
1981-08-27 09:25:26.300 ,7,0,0.,4.8,0.,4.8,0.,4.8,0.,4.8
1981-08-27 09:25:31.100 ,7,0,0.,4.8,0.,4.8,0.,4.8,0.,4.8
1981-08-27 09:25:35.900 ,6,0,1.,4.8,0.,4.8,0.,4.8,0.,4.8
1981-08-27 09:25:40.700 ,6,0,1.,4.8,0.,4.8,0.,4.8,0.,4.8
1981-08-27 09:25:45.500 ,6,0,1.,4.8,0.,4.8,0.,4.8,0.,4.8
1981-08-27 09:25:50.300 ,6,0,0.,4.8,0.,4.8,0.,4.8,0.,4.8
1981-08-27 09:25:55.100 ,6,0,0.,4.8,0.,4.8,0.,4.8,0.,4.8
1981-08-27 09:25:59.900 ,6,0,0.,4.8,0.,4.8,0.,4.8,0.,4.8
1981-08-27 09:26:04.700 ,6,0,0.,4.8,0.,4.8,0.,4.8,0.,4.8
1981-08-27 09:26:09.500 ,6,0,0.,4.8,0.,4.8,0.,4.8,0.,4.8
1981-08-27 09:26:14.300 ,6,0,0.,4.8,0.,4.8,0.,4.8,0.,4.8
1981-08-27 09:26:19.100 ,6,0,0.,4.8,0.,4.8,0.,4.8,0.,4.8
1981-08-27 09:26:23.900 ,5,0,0.,4.8,0.,4.8,0.,4.8,0.,4.8
1981-08-27 09:26:28.700 ,5,0,0.,4.8,0.,4.8,0.,4.8,0.,4.8
1981-08-27 09:26:33.500 ,5,0,0.,4.8,0.,4.8,0.,4.8,0.,4.8
1981-08-27 09:26:38.300 ,5,0,0.,4.8,0.,4.8,0.,4.8,0.,4.8
1981-08-27 09:26:43.100 ,5,0,0.,4.8,0.,4.8,0.,4.8,0.,4.8
1981-08-27 09:26:47.900 ,5,0,0.,4.8,0.,4.8,0.,4.8,0.,4.8
1981-08-27 09:26:52.700 ,5,0,0.,4.8,0.,4.8,0.,4.8,0.,4.8
1981-08-27 09:26:57.500 ,5,0,1.,4.8,0.,4.8,0.,4.8,0.,4.8
1981-08-27 09:27:02.300 ,5,0,0.,4.8,0.,4.8,0.,4.8,0.,4.8
1981-08-27 09:27:07.100 ,5,0,1.,4.8,0.,4.8,0.,4.8,0.,4.8
1981-08-27 09:27:11.900 ,4,0,1.,4.8,0.,4.8,0.,4.8,0.,4.8
1981-08-27 09:27:16.700 ,4,0,2.,4.8,0.,4.8,1.,4.8,0.,4.8
1981-08-27 09:27:21.500 ,4,0,1.,4.8,0.,4.8,0.,4.8,0.,4.8
1981-08-27 09:27:26.300 ,4,0,2.,4.8,0.,4.8,0.,4.8,0.,4.8
1981-08-27 09:27:31.100 ,4,0,0.,4.8,0.,4.8,0.,4.8,0.,4.8
1981-08-27 09:27:35.900 ,4,0,0.,4.8,0.,4.8,0.,4.8,0.,4.8
1981-08-27 09:27:40.700 ,4,0,0.,4.8,0.,4.8,0.,4.8,0.,4.8
1981-08-27 09:27:45.500 ,4,0,0.,4.8,0.,4.8,0.,4.8,0.,4.8
1981-08-27 09:27:50.300 ,4,0,0.,4.8,0.,4.8,0.,4.8,0.,4.8
1981-08-27 09:27:55.100 ,4,0,0.,4.8,0.,4.8,0.,4.8,0.,4.8
1981-08-27 09:27:59.900 ,3,0,1.,4.8,0.,4.8,0.,4.8,0.,4.8
1981-08-27 09:28:04.700 ,3,0,1.,4.8,0.,4.8,0.,4.8,0.,4.8
1981-08-27 09:28:09.500 ,3,0,0.,4.8,0.,4.8,0.,4.8,0.,4.8
1981-08-27 09:28:14.300 ,3,0,0.,4.8,1.,4.8,0.,4.8,0.,4.8
1981-08-27 09:28:19.100 ,3,0,0.,4.8,0.,4.8,0.,4.8,0.,4.8
1981-08-27 09:28:23.900 ,3,0,2.,4.8,0.,4.8,0.,4.8,0.,4.8
1981-08-27 09:28:28.700 ,3,0,0.,4.8,0.,4.8,0.,4.8,0.,4.8
1981-08-27 09:28:33.500 ,3,0,1.,4.8,0.,4.8,0.,4.8,0.,4.8
1981-08-27 09:28:38.300 ,3,0,0.,4.8,0.,4.8,1.,4.8,0.,4.8
1981-08-27 09:28:43.100 ,3,0,3.,4.8,0.,4.8,0.,4.8,0.,4.8
1981-08-27 09:28:47.900 ,2,0,0.,4.8,0.,4.8,0.,4.8,0.,4.8
1981-08-27 09:28:52.700 ,2,0,0.,4.8,1.,4.8,0.,4.8,0.,4.8
1981-08-27 09:28:57.500 ,2,0,0.,4.8,0.,4.8,0.,4.8,0.,4.8
1981-08-27 09:29:02.300 ,2,0,1.,4.8,0.,4.8,0.,4.8,0.,4.8
1981-08-27 09:29:07.100 ,2,0,0.,4.8,0.,4.8,0.,4.8,0.,4.8
1981-08-27 09:29:11.900 ,2,0,0.,4.8,0.,4.8,0.,4.8,0.,4.8
1981-08-27 09:29:16.700 ,2,0,0.,4.8,0.,4.8,0.,4.8,0.,4.8
1981-08-27 09:29:21.500 ,2,0,0.,4.8,1.,4.8,0.,4.8,0.,4.8
1981-08-27 09:29:26.300 ,2,0,0.,4.8,0.,4.8,0.,4.8,0.,4.8
1981-08-27 09:29:31.100 ,2,0,1.,4.8,0.,4.8,0.,4.8,0.,4.8
1981-08-27 09:29:35.900 ,1,0,0.,4.8,0.,4.8,0.,4.8,0.,4.8
1981-08-27 09:29:40.700 ,1,0,0.,4.8,0.,4.8,0.,4.8,0.,4.8
1981-08-27 09:29:45.500 ,1,0,0.,4.8,0.,4.8,0.,4.8,0.,4.8
1981-08-27 09:29:50.300 ,1,0,0.,4.8,0.,4.8,0.,4.8,0.,4.8
1981-08-27 09:29:55.100 ,1,0,0.,4.8,0.,4.8,0.,4.8,0.,4.8
1981-08-27 09:29:59.900 ,1,0,0.,4.8,0.,4.8,0.,4.8,0.,4.8
1981-08-27 09:30:04.700 ,1,0,0.,4.8,0.,4.8,0.,4.8,0.,4.8
1981-08-27 09:30:09.500 ,1,0,0.,4.8,0.,4.8,0.,4.8,0.,4.8
1981-08-27 09:30:14.300 ,1,0,1.,4.8,0.,4.8,0.,4.8,0.,4.8
1981-08-27 09:30:19.100 ,1,0,0.,4.8,0.,4.8,0.,4.8,0.,4.8
1981-08-27 09:30:23.900 ,0,0,2.,4.8,0.,4.8,0.,4.8,0.,4.8
1981-08-27 09:30:28.700 ,0,0,1.,4.8,0.,4.8,0.,4.8,0.,4.8
1981-08-27 09:30:33.500 ,0,0,1.,4.8,0.,4.8,0.,4.8,0.,4.8
1981-08-27 09:30:38.300 ,0,0,0.,4.8,0.,4.8,0.,4.8,0.,4.8
1981-08-27 09:30:43.100 ,0,0,0.,4.8,0.,4.8,0.,4.8,0.,4.8
1981-08-27 09:30:47.900 ,0,0,0.,4.8,0.,4.8,0.,4.8,0.,4.8
1981-08-27 09:30:52.700 ,0,0,0.,4.8,0.,4.8,0.,4.8,0.,4.8
1981-08-27 09:30:57.500 ,0,0,0.,4.8,0.,4.8,0.,4.8,0.,4.8
1981-08-27 09:31:02.300 ,0,0,0.,4.8,0.,4.8,0.,4.8,0.,4.8
1981-08-27 09:31:07.100 ,0,0,0.,4.8,0.,4.8,0.,4.8,0.,4.8
1981-08-27 09:31:11.900 ,0,0,0.,4.8,0.,4.8,0.,4.8,0.,4.8
1981-08-27 09:31:16.700 ,0,0,0.,4.8,0.,4.8,0.,4.8,0.,4.8
1981-08-27 09:31:21.500 ,0,0,0.,4.8,0.,4.8,0.,4.8,0.,4.8
1981-08-27 09:31:26.300 ,0,0,0.,4.8,0.,4.8,0.,4.8,0.,4.8
1981-08-27 09:31:31.100 ,0,0,0.,4.8,0.,4.8,0.,4.8,0.,4.8
1981-08-27 09:31:35.900 ,0,0,0.,4.8,0.,4.8,0.,4.8,0.,4.8
1981-08-27 09:31:40.700 ,0,0,0.,4.8,0.,4.8,0.,4.8,0.,4.8
1981-08-27 09:31:45.500 ,0,0,1.,4.8,0.,4.8,0.,4.8,0.,4.8
1981-08-27 09:31:50.300 ,0,0,0.,4.8,0.,4.8,0.,4.8,0.,4.8
1981-08-27 09:31:55.100 ,0,0,1.,4.8,0.,4.8,0.,4.8,0.,4.8
1981-08-27 09:31:59.900 ,1,0,0.,4.8,0.,4.8,0.,4.8,0.,4.8
1981-08-27 09:32:04.700 ,1,0,1.,4.8,0.,4.8,0.,4.8,0.,4.8
1981-08-27 09:32:09.500 ,1,0,0.,4.8,0.,4.8,0.,4.8,0.,4.8
1981-08-27 09:32:14.300 ,1,0,1.,4.8,0.,4.8,0.,4.8,0.,4.8
1981-08-27 09:32:19.100 ,1,0,0.,4.8,0.,4.8,0.,4.8,0.,4.8
1981-08-27 09:32:23.900 ,1,0,0.,4.8,0.,4.8,0.,4.8,0.,4.8
1981-08-27 09:32:28.700 ,1,0,2.,4.8,0.,4.8,0.,4.8,0.,4.8
1981-08-27 09:32:33.500 ,1,0,0.,4.8,0.,4.8,0.,4.8,0.,4.8
1981-08-27 09:32:38.300 ,1,0,0.,4.8,0.,4.8,0.,4.8,0.,4.8
1981-08-27 09:32:43.100 ,1,0,0.,4.8,0.,4.8,0.,4.8,0.,4.8
1981-08-27 09:32:47.900 ,2,0,1.,4.8,1.,4.8,0.,4.8,0.,4.8
1981-08-27 09:32:52.700 ,2,0,0.,4.8,0.,4.8,0.,4.8,0.,4.8
1981-08-27 09:32:57.500 ,2,0,1.,4.8,0.,4.8,0.,4.8,0.,4.8
1981-08-27 09:33:02.300 ,2,0,0.,4.8,0.,4.8,1.,4.8,0.,4.8
1981-08-27 09:33:07.100 ,2,0,0.,4.8,0.,4.8,0.,4.8,0.,4.8
1981-08-27 09:33:11.900 ,2,0,0.,4.8,0.,4.8,1.,4.8,0.,4.8
1981-08-27 09:33:16.700 ,2,0,0.,4.8,0.,4.8,0.,4.8,0.,4.8